Location: Cosy Dell
(34.2789°N, 117.4537°W)
Time: 12:27:24
(UTC+00:00)

CZ-4B R/B - Pass Details

Date: 14 July 2020
Orbit: 390 x 465 km, 97.6° (Epoch: 08 August)

Event Time Altitude Azimuth Distance (km) Brightness Sun altitude
Rises 11:26:02 0° 137° (SE) 2,477 5.2 -15.1°
Reaches altitude 10° 11:28:26 10° 119° (ESE) 1,612 4.5 -14.7°
Maximum altitude 11:31:01 20° 71° (ENE) 1,139 4.4 -14.3°
Drops below altitude 10° 11:33:36 10° 23° (NNE) 1,624 5.2 -13.9°
Sets 11:36:02 0° 6° (N) 2,502 5.9 -13.5°
